Location: L�gaud
(45.7115°N, 1.7775°E)
Time: 17:18:20
(UTC+00:00)

USA 305 - Pass Details

Date: 03 March 2021
Orbit: 564 x 577 km, 54.0° (Epoch: 10 April)

Event Time Altitude Azimuth Distance (km) Brightness Sun altitude
Rises 19:44:18 0° 295° (WNW) 2,783 7.8 -21.9°
Reaches altitude 10° 19:46:49 10° 307° (NW) 1,881 6.5 -22.3°
Maximum altitude 19:50:31 28° 7° (N) 1,100 4.4 -23.0°
Enters shadow 19:50:57 27° 18° (NNE) 1,114 4.3 -23.0°
